"startDT [UTC]","vpos","CH4 [ppm]","stdev(CH4) [ppm]","CO2 [ppm]","stdev(CO2) [ppm]","H2O_reported [%]","stdev(H2O_reported)","CavityPressure [torr]","CavityTemp [C]","OutletValve","CH4_dry [ppm]","CO2_dry [ppm]","DasTemp [C]","EtalonTemp [C]","WarmBoxTemp [C]","MPVPosition","T_ECpre [C]","T_EC1 [C]","T_EC2 [C]","p_inlet [hPa]","p_in [hPa]","p_out [hPa]","T_inlet [C]","RH_inlet [%]","dwpt_inlet [C]","T_vent [C]","RH_vent [%]","dwpt_vent [C]","flow_vent [l min-1]","flow_inlet [l min-1]","dwpt_sample [C]","T_room [C]"
2013-11-15 00:00:00,3.0,1.88284,0.01272,399.186,0.854,0.0504,0.0633,139.991,45.000,31034.74813,1.88845,399.629,33.313,45.058,45.000,0.00,0.11,-272.57,-272.63,-18,470,-2,20.2,5.0,-20.7,20.3,5.2,-20.2,5.73,2.62,-11.7,26.6
2013-11-15 00:01:00,3.0,1.87716,0.00049,397.326,0.088,0.0077,0.0017,139.999,45.000,30996.50733,1.87719,397.401,33.313,45.058,45.000,0.00,0.11,-272.57,-272.63,-18,470,-2,20.2,5.0,-20.7,20.3,5.2,-20.2,5.73,2.54,-11.7,26.6
2013-11-15 00:02:00,3.0,1.87752,0.00053,397.244,0.027,0.0097,0.0005,140.005,45.000,30983.32466,1.87760,397.292,33.313,45.058,45.000,0.00,0.11,-272.57,-272.64,-18,470,-2,20.2,5.0,-20.6,20.3,5.2,-20.1,5.73,2.53,-11.7,26.6
2013-11-15 00:03:00,3.0,1.87705,0.00035,397.341,0.049,0.0066,0.0014,139.999,45.000,30974.80506,1.87731,397.359,33.313,45.058,45.000,0.00,0.11,-272.57,-272.64,-18,470,-2,20.3,5.0,-20.6,20.4,5.2,-20.1,5.73,2.57,-11.7,26.7
2013-11-15 00:04:00,3.0,1.87694,0.00025,397.476,0.031,0.0058,0.0021,140.000,45.000,30969.12949,1.87704,397.502,33.313,45.058,45.000,0.00,0.11,-272.57,-272.63,-18,470,-2,20.3,5.0,-20.5,20.4,5.3,-20.0,5.73,2.61,-11.7,26.7
2013-11-15 00:05:00,3.0,1.87689,0.00023,397.559,0.032,0.0066,0.0008,140.001,45.000,30965.68274,1.87704,397.584,33.319,45.058,45.000,0.00,0.11,-272.58,-272.63,-18,471,-2,20.3,5.0,-20.6,20.4,5.2,-20.1,5.73,2.62,-11.7,26.7
2013-11-15 00:06:00,3.0,1.87698,0.00030,397.579,0.024,0.0045,0.0018,140.000,45.000,30961.73415,1.87696,397.604,33.313,45.058,45.000,0.00,0.11,-272.58,-272.63,-18,471,-2,20.3,4.9,-20.7,20.4,5.1,-20.3,5.73,2.58,-11.7,26.7
2013-11-15 00:07:00,3.0,1.87716,0.00035,397.593,0.026,0.0032,0.0021,139.998,45.000,30957.09291,1.87725,397.608,33.313,45.058,45.000,0.00,0.11,-272.57,-272.63,-18,471,-2,20.4,4.9,-20.8,20.4,5.1,-20.3,5.73,2.54,-11.7,26.7
2013-11-15 00:08:00,3.0,1.87746,0.00024,397.612,0.020,0.0027,0.0025,140.006,45.000,30955.93910,1.87749,397.625,33.313,45.058,45.000,0.00,0.11,-272.57,-272.63,-18,472,-2,20.4,4.9,-20.8,20.4,5.1,-20.3,5.73,2.52,-11.7,26.8
2013-11-15 00:09:00,3.0,1.87751,0.00014,397.653,0.014,0.0026,0.0039,140.008,45.000,30955.84677,1.87751,397.662,33.318,45.058,45.000,0.00,0.11,-272.57,-272.64,-18,472,-2,20.4,4.9,-20.8,20.4,5.1,-20.3,5.73,2.56,-11.7,26.8
2013-11-15 00:10:00,3.0,1.87726,0.00026,397.631,0.032,0.0010,0.0016,140.002,45.000,30953.89785,1.87733,397.643,33.313,45.058,45.000,0.00,0.11,-272.57,-272.64,-18,472,-2,20.4,4.8,-20.9,20.4,5.0,-20.4,5.73,2.61,-11.6,26.8
2013-11-15 00:11:00,3.0,1.87754,0.00043,397.629,0.025,0.0021,0.0034,140.002,45.000,30953.22989,1.87745,397.635,33.313,45.058,45.000,0.00,0.11,-272.57,-272.64,-18,472,-2,20.5,4.8,-20.8,20.5,5.0,-20.4,5.73,2.62,-11.6,26.8
2013-11-15 00:12:00,3.0,1.87764,0.00046,397.653,0.033,0.0011,0.0027,140.001,45.000,30952.78569,1.87771,397.658,33.316,45.058,45.000,0.00,0.11,-272.58,-272.64,-18,473,-2,20.5,4.9,-20.7,20.5,5.1,-20.3,5.73,2.59,-11.7,26.9
2013-11-15 00:13:00,3.0,1.87741,0.00024,397.661,0.042,0.0015,0.0023,139.999,45.000,30952.37689,1.87752,397.665,33.326,45.058,45.000,0.00,0.11,-272.57,-272.64,-18,473,-2,20.5,4.9,-20.7,20.6,5.1,-20.2,5.73,2.54,-11.6,26.9
2013-11-15 00:14:00,3.0,1.87738,0.00032,397.661,0.024,0.0001,0.0007,140.008,45.000,30956.00594,1.87735,397.665,33.343,45.058,45.000,0.00,0.11,-272.57,-272.63,-18,473,-2,20.6,4.9,-20.7,20.6,5.1,-20.2,5.73,2.52,-11.6,26.9
2013-11-15 00:15:00,3.0,1.87736,0.00023,397.677,0.032,0.0021,0.0013,139.997,45.000,30954.97964,1.87740,397.687,33.365,45.058,45.000,0.00,0.11,-272.57,-272.64,-18,473,-2,20.6,4.9,-20.6,20.6,5.1,-20.2,5.73,2.55,-11.6,27.0
2013-11-15 00:16:00,3.0,1.87737,0.00023,397.660,0.039,0.0020,0.0020,140.004,45.000,30959.06297,1.87741,397.668,33.372,45.058,44.999,0.00,0.11,-272.57,-272.64,-18,474,-2,20.6,4.9,-20.6,20.6,5.1,-20.1,5.73,2.60,-11.6,27.0
2013-11-15 00:17:00,3.0,1.87743,0.00041,397.680,0.047,0.0022,0.0016,140.003,45.000,30958.57073,1.87741,397.690,33.374,45.058,45.000,0.00,0.11,-272.57,-272.63,-18,474,-2,20.7,4.9,-20.6,20.6,5.1,-20.2,5.73,2.62,-11.6,27.0
2013-11-15 00:18:00,3.0,1.87737,0.00051,397.678,0.028,0.0008,0.0018,140.004,45.000,30958.45289,1.87729,397.681,33.374,45.058,44.999,0.00,0.11,-272.57,-272.64,-18,474,-2,20.7,4.8,-20.7,20.7,5.0,-20.2,5.73,2.59,-11.6,27.1
2013-11-15 00:19:00,3.0,1.87743,0.00028,397.679,0.036,-0.0005,0.0017,140.002,45.000,30960.12371,1.87754,397.675,33.370,45.058,45.000,0.00,0.11,-272.57,-272.63,-18,474,-2,20.8,4.8,-20.6,20.7,5.1,-20.2,5.73,2.55,-11.6,27.1
2013-11-15 00:20:00,0.0,1.90565,0.01158,399.500,0.768,0.1283,0.0392,139.999,45.000,31607.64101,1.90308,399.876,33.375,45.058,45.000,0.00,0.11,-272.57,-272.63,-19,573,-2,20.8,4.9,-20.6,20.8,5.0,-20.1,5.73,2.50,-11.6,27.1
2013-11-15 00:21:00,0.0,1.90945,0.00087,399.760,0.194,0.1504,0.0009,140.003,45.000,31647.92929,1.91256,400.527,33.375,45.058,45.000,0.00,0.11,-272.57,-272.63,-18,573,-2,20.8,4.8,-20.6,20.8,5.0,-20.2,5.73,2.55,-11.6,27.1
2013-11-15 00:22:00,0.0,1.90934,0.00070,399.611,0.158,0.1522,0.0019,139.996,45.000,31656.60384,1.91201,400.319,33.375,45.058,45.000,0.00,0.11,-272.57,-272.64,-18,574,-2,20.9,4.8,-20.6,20.8,5.0,-20.2,5.73,2.59,-11.6,27.1
2013-11-15 00:23:00,0.0,1.90916,0.00028,399.687,0.034,0.1547,0.0012,139.993,45.000,31669.95335,1.91215,400.437,33.375,45.058,45.000,0.00,0.11,-272.57,-272.63,-19,574,-2,20.9,4.8,-20.6,20.8,5.0,-20.1,5.73,2.62,-11.6,27.2
2013-11-15 00:24:00,0.0,1.90912,0.00051,399.696,0.056,0.1536,0.0013,140.002,45.000,31682.94635,1.91192,400.439,33.375,45.058,45.000,0.00,0.11,-272.57,-272.63,-19,574,-2,20.9,4.8,-20.6,20.9,5.0,-20.1,5.73,2.61,-11.6,27.2
2013-11-15 00:25:00,0.0,1.90927,0.00051,399.782,0.096,0.1518,0.0016,140.002,45.000,31689.89239,1.91220,400.516,33.375,45.058,45.000,0.00,0.11,-272.57,-272.63,-18,574,-2,21.0,4.8,-20.6,20.9,5.0,-20.2,5.73,2.57,-11.6,27.2
2013-11-15 00:26:00,0.0,1.90878,0.00039,399.796,0.067,0.1526,0.0021,140.005,45.000,31697.82565,1.91168,400.519,33.374,45.058,45.000,0.00,0.11,-272.57,-272.64,-18,574,-2,21.0,4.8,-20.6,20.9,5.0,-20.2,5.73,2.54,-11.5,27.2
2013-11-15 00:27:00,0.0,1.90934,0.00037,399.909,0.037,0.1537,0.0011,140.004,45.000,31701.86426,1.91213,400.641,33.368,45.058,45.000,0.00,0.11,-272.57,-272.63,-18,575,-2,21.0,4.8,-20.6,20.9,5.0,-20.2,5.73,2.53,-11.5,27.1
2013-11-15 00:28:00,0.0,1.90969,0.00028,399.939,0.020,0.1529,0.0023,139.999,45.000,31704.21329,1.91262,400.678,33.373,45.058,45.000,0.00,0.11,-272.57,-272.63,-19,575,-3,21.0,4.8,-20.6,20.9,5.0,-20.2,5.73,2.56,-11.5,27.2
2013-11-15 00:29:00,0.0,1.91000,0.00032,399.975,0.025,0.1520,0.0017,140.002,45.000,31708.23946,1.91275,400.706,33.375,45.058,45.000,0.00,0.11,-272.57,-272.64,-19,575,-1,20.9,4.8,-20.7,20.9,4.9,-20.2,5.73,2.60,-11.5,27.1
2013-11-15 00:30:00,0.0,1.90981,0.00016,399.886,0.055,0.1505,0.0011,140.001,45.000,31712.50157,1.91271,400.624,33.375,45.059,45.000,0.00,0.11,-272.57,-272.63,-19,572,-2,21.0,4.8,-20.7,20.9,4.9,-20.3,5.73,2.62,-11.5,27.1
2013-11-15 00:31:00,0.0,1.90856,0.00062,399.571,0.071,0.1519,0.0025,140.004,45.000,31717.05372,1.91153,400.315,33.375,45.059,45.000,0.00,0.11,-272.57,-272.63,-18,575,-2,20.9,4.8,-20.7,21.0,4.9,-20.2,5.73,2.60,-11.5,27.2
2013-11-15 00:32:00,0.0,1.90891,0.00043,399.678,0.163,0.1538,0.0013,140.001,45.000,31718.03257,1.91173,400.402,33.375,45.058,45.000,0.00,0.11,-272.57,-272.64,-19,575,-3,21.0,4.8,-20.6,21.0,5.0,-20.1,5.73,2.57,-11.5,27.1
2013-11-15 00:33:00,0.0,1.90943,0.00068,399.782,0.052,0.1539,0.0020,140.001,45.000,31721.85717,1.91239,400.536,33.375,45.058,45.000,0.00,0.11,-272.56,-272.63,-19,575,-3,20.9,4.8,-20.6,21.0,5.0,-20.1,5.73,2.54,-11.5,27.1
2013-11-15 00:34:00,0.0,1.90884,0.00037,399.684,0.049,0.1531,0.0007,140.005,45.000,31725.53386,1.91169,400.424,33.375,45.059,45.000,0.00,0.11,-272.57,-272.63,-19,575,-3,21.0,4.8,-20.6,21.0,5.0,-20.2,5.73,2.54,-11.5,27.1
2013-11-15 00:35:00,0.0,1.90823,0.00066,399.509,0.089,0.1542,0.0006,140.002,45.000,31727.43213,1.91118,400.260,33.375,45.059,45.000,0.00,0.11,-272.57,-272.63,-18,575,-3,20.9,4.8,-20.6,21.0,5.0,-20.2,5.73,2.56,-11.5,27.1
2013-11-15 00:36:00,0.0,1.90834,0.00041,399.530,0.041,0.1553,0.0012,139.998,45.000,31727.40848,1.91135,400.283,33.375,45.059,45.000,0.00,0.11,-272.57,-272.64,-18,575,-3,20.9,4.8,-20.5,21.0,5.0,-20.1,5.73,2.60,-11.5,27.1
2013-11-15 00:37:00,0.0,1.90832,0.00092,399.493,0.076,0.1547,0.0009,140.005,45.000,31731.04918,1.91140,400.243,33.375,45.059,45.000,0.00,0.11,-272.56,-272.63,-19,575,-3,20.9,4.8,-20.5,21.0,5.0,-20.1,5.73,2.61,-11.5,27.1
2013-11-15 00:38:00,0.0,1.90795,0.00043,399.281,0.053,0.1570,0.0016,140.006,45.000,31730.31318,1.91081,400.042,33.375,45.059,45.000,0.00,0.11,-272.57,-272.63,-19,575,-3,20.9,4.9,-20.5,21.0,5.0,-20.0,5.73,2.60,-11.5,27.1
2013-11-15 00:39:00,0.0,1.90830,0.00063,399.446,0.122,0.1567,0.0014,140.005,45.000,31730.64531,1.91118,400.195,33.378,45.059,45.000,0.00,0.11,-272.57,-272.63,-19,575,-3,20.9,4.9,-20.4,21.0,5.1,-19.9,5.73,2.56,-11.5,27.1
2013-11-15 00:40:00,0.0,1.90886,0.00046,399.505,0.063,0.1573,0.0009,140.003,45.000,31730.18447,1.91179,400.260,33.375,45.059,45.000,0.00,0.11,-272.57,-272.64,-18,575,-3,20.9,4.9,-20.4,21.0,5.1,-20.0,5.73,2.54,-11.5,27.1
2013-11-15 00:41:00,0.0,1.90888,0.00057,399.501,0.061,0.1565,0.0013,139.996,45.000,31728.46232,1.91170,400.247,33.375,45.059,45.000,0.00,0.11,-272.56,-272.63,-18,575,-3,20.9,4.9,-20.4,20.9,5.1,-20.0,5.73,2.54,-11.5,27.1
2013-11-15 00:42:00,0.0,1.90907,0.00028,399.619,0.030,0.1562,0.0017,139.999,45.000,31729.08300,1.91204,400.378,33.370,45.058,45.000,0.00,0.11,-272.57,-272.64,-19,575,-3,20.9,4.9,-20.4,20.9,5.1,-20.0,5.73,2.57,-11.5,27.1
2013-11-15 00:43:00,0.0,1.90953,0.00037,399.669,0.066,0.1552,0.0014,139.996,45.000,31728.34628,1.91238,400.410,33.369,45.059,45.000,0.00,0.11,-272.57,-272.64,-19,575,-3,20.9,4.9,-20.5,20.9,5.0,-20.1,5.73,2.61,-11.5,27.1
2013-11-15 00:44:00,0.0,1.90908,0.00043,399.566,0.069,0.1558,0.0017,140.000,45.000,31727.55827,1.91211,400.318,33.375,45.058,45.000,0.00,0.11,-272.57,-272.63,-18,575,-3,20.9,4.9,-20.5,20.9,5.0,-20.1,5.73,2.61,-11.5,27.1
2013-11-15 00:45:00,0.0,1.90883,0.00014,399.538,0.054,0.1550,0.0021,139.996,45.000,31728.04385,1.91181,400.299,33.375,45.058,45.000,0.00,0.11,-272.57,-272.63,-18,575,-3,20.8,4.9,-20.5,20.9,5.0,-20.1,5.73,2.58,-11.5,27.1
2013-11-15 00:46:00,0.0,1.90843,0.00037,399.475,0.036,0.1552,0.0009,140.000,45.000,31729.38287,1.91139,400.225,33.375,45.058,45.000,0.00,0.11,-272.57,-272.63,-18,575,-3,20.8,4.9,-20.5,20.9,5.1,-20.0,5.73,2.55,-11.5,27.1
2013-11-15 00:47:00,0.0,1.90905,0.00062,399.587,0.052,0.1570,0.0009,140.003,45.000,31730.78173,1.91179,400.322,33.375,45.058,45.000,0.00,0.11,-272.57,-272.63,-19,575,-3,20.8,4.9,-20.5,20.9,5.1,-20.0,5.73,2.53,-11.5,27.1
2013-11-15 00:48:00,0.0,1.90966,0.00097,399.813,0.164,0.1538,0.0024,140.001,45.000,31730.25002,1.91269,400.563,33.376,45.058,45.000,0.00,0.11,-272.57,-272.63,-19,575,-3,20.8,4.9,-20.5,20.9,5.0,-20.1,5.73,2.55,-11.5,27.1
2013-11-15 00:49:00,0.0,1.90928,0.00025,399.797,0.070,0.1525,0.0018,140.002,45.000,31732.80806,1.91202,400.513,33.375,45.058,45.000,0.00,0.11,-272.57,-272.63,-19,575,-3,20.8,4.8,-20.6,20.9,5.0,-20.2,5.73,2.58,-11.5,27.1
2013-11-15 00:50:00,0.0,1.90999,0.00051,399.912,0.043,0.1522,0.0026,140.003,45.000,31731.28529,1.91274,400.637,33.399,45.058,45.000,0.00,0.11,-272.57,-272.63,-18,575,-3,20.8,4.8,-20.8,20.9,5.0,-20.3,5.73,2.61,-11.5,27.1
2013-11-15 00:51:00,0.0,1.91033,0.00027,399.996,0.050,0.1512,0.0015,139.996,45.000,31730.76237,1.91322,400.722,33.388,45.058,45.000,0.00,0.11,-272.56,-272.63,-18,575,-3,20.8,4.7,-20.9,20.9,4.9,-20.4,5.73,2.61,-11.5,27.0
2013-11-15 00:52:00,0.0,1.91010,0.00033,400.052,0.023,0.1489,0.0014,140.006,45.000,31732.61059,1.91286,400.771,33.382,45.058,45.000,0.00,0.11,-272.57,-272.63,-19,575,-3,20.8,4.7,-21.0,20.9,4.9,-20.4,5.73,2.58,-11.5,27.1
2013-11-15 00:53:00,0.0,1.91011,0.00031,400.024,0.022,0.1495,0.0012,140.001,45.000,31731.55239,1.91298,400.744,33.383,45.058,45.000,0.00,0.11,-272.57,-272.63,-19,575,-3,20.8,4.7,-21.0,20.9,4.9,-20.5,5.73,2.54,-11.5,27.0
2013-11-15 00:54:00,0.0,1.91002,0.00025,400.061,0.031,0.1496,0.0013,140.004,45.000,31732.45261,1.91283,400.780,33.379,45.058,45.000,0.00,0.11,-272.57,-272.63,-19,574,-3,20.8,4.7,-21.0,20.9,4.9,-20.5,5.73,2.54,-11.5,27.0
2013-11-15 00:55:00,0.0,1.90978,0.00023,400.001,0.028,0.1515,0.0024,140.008,45.000,31733.44672,1.91265,400.737,33.375,45.059,45.000,0.00,0.11,-272.57,-272.64,-18,575,-3,20.8,4.7,-21.0,20.9,4.9,-20.5,5.73,2.56,-11.5,27.0
2013-11-15 00:56:00,0.0,1.90991,0.00023,399.956,0.021,0.1509,0.0009,140.004,45.000,31733.46324,1.91276,400.685,33.375,45.059,45.000,0.00,0.11,-272.57,-272.64,-19,575,-3,20.7,4.7,-20.9,20.9,4.9,-20.4,5.73,2.60,-11.5,27.0
2013-11-15 00:57:00,0.0,1.90997,0.00037,399.926,0.042,0.1505,0.0015,140.007,45.000,31732.90410,1.91278,400.651,33.375,45.059,45.000,0.00,0.11,-272.57,-272.64,-19,574,-3,20.7,4.8,-20.9,20.8,4.9,-20.4,5.73,2.62,-11.5,27.0
2013-11-15 00:58:00,0.0,1.90967,0.00038,399.869,0.079,0.1519,0.0019,140.002,45.000,31731.34189,1.91259,400.611,33.375,45.059,45.000,0.00,0.11,-272.57,-272.63,-19,574,-3,20.7,4.8,-20.9,20.8,4.9,-20.3,5.73,2.60,-11.5,27.0
2013-11-15 00:59:00,0.0,1.90977,0.00042,399.885,0.017,0.1526,0.0008,140.007,45.000,31731.16971,1.91261,400.618,33.371,45.059,45.000,0.00,0.11,-272.57,-272.63,-19,574,-3,20.7,4.8,-20.8,20.8,5.0,-20.3,5.73,2.57,-11.5,27.0
2013-11-15 01:00:00,0.0,1.90980,0.00053,399.827,0.134,0.1527,0.0013,139.999,45.000,31725.78722,1.91282,400.582,33.375,45.059,45.000,0.00,0.11,-272.57,-272.63,-18,574,-3,20.7,4.8,-20.8,20.8,5.0,-20.3,5.73,2.54,-11.5,26.9
2013-11-15 01:01:00,0.0,1.90890,0.00048,399.566,0.112,0.1530,0.0017,140.000,45.000,31723.96962,1.91172,400.298,33.375,45.059,45.000,0.00,0.11,-272.57,-272.63,-19,575,-3,20.6,4.8,-20.7,20.8,5.0,-20.2,5.73,2.53,-11.5,27.0
2013-11-15 01:02:00,0.0,1.90924,0.00054,399.657,0.058,0.1552,0.0019,139.999,45.000,31725.64191,1.91222,400.403,33.375,45.059,45.000,0.00,0.11,-272.57,-272.63,-19,574,-3,20.6,4.9,-20.6,20.8,5.0,-20.1,5.73,2.57,-11.5,26.9
2013-11-15 01:03:00,0.0,1.90940,0.00024,399.813,0.067,0.1559,0.0010,140.001,45.000,31726.48836,1.91224,400.552,33.375,45.058,45.000,0.00,0.11,-272.57,-272.63,-18,574,-3,20.6,4.9,-20.7,20.8,5.0,-20.2,5.73,2.60,-11.5,27.0
2013-11-15 01:04:00,0.0,1.90875,0.00066,399.696,0.154,0.1523,0.0005,139.999,45.000,31725.58992,1.91183,400.464,33.375,45.059,45.000,0.00,0.11,-272.57,-272.63,-18,574,-3,20.6,4.8,-20.7,20.8,5.0,-20.2,5.73,2.62,-11.5,26.9
2013-11-15 01:05:00,0.0,1.90899,0.00041,399.645,0.020,0.1540,0.0010,140.002,45.000,31725.71094,1.91184,400.380,33.380,45.059,45.000,0.00,0.11,-272.57,-272.63,-18,574,-3,20.6,4.8,-20.7,20.8,5.0,-20.2,5.73,2.60,-11.5,26.9
2013-11-15 01:06:00,0.0,1.90862,0.00012,399.651,0.064,0.1529,0.0008,140.002,45.000,31727.26494,1.91153,400.381,33.375,45.058,45.000,0.00,0.11,-272.57,-272.63,-19,574,-3,20.6,4.8,-20.8,20.8,5.0,-20.3,5.73,2.56,-11.5,26.9
2013-11-15 01:07:00,0.0,1.90889,0.00067,399.583,0.132,0.1536,0.0019,140.001,45.000,31726.17843,1.91181,400.345,33.375,45.058,45.000,0.00,0.11,-272.57,-272.63,-19,574,-3,20.6,4.8,-20.8,20.8,5.0,-20.3,5.73,2.53,-11.5,26.9
2013-11-15 01:08:00,0.0,1.90875,0.00045,399.503,0.042,0.1527,0.0018,140.001,45.000,31725.07087,1.91163,400.234,33.368,45.058,45.000,0.00,0.11,-272.57,-272.63,-18,574,-3,20.6,4.9,-20.7,20.8,5.0,-20.2,5.73,2.54,-11.5,27.0
2013-11-15 01:09:00,0.0,1.90847,0.00040,399.487,0.018,0.1535,0.0021,139.995,45.000,31723.13668,1.91127,400.221,33.375,45.058,45.000,0.00,0.11,-272.57,-272.64,-19,574,-3,20.6,4.9,-20.6,20.8,5.1,-20.1,5.73,2.57,-11.5,27.0
2013-11-15 01:10:00,0.0,1.90904,0.00036,399.702,0.083,0.1537,0.0020,140.005,45.000,31724.91709,1.91188,400.422,33.375,45.058,45.000,0.00,0.11,-272.57,-272.63,-18,574,-3,20.6,4.9,-20.6,20.7,5.0,-20.2,5.73,2.61,-11.5,27.0
2013-11-15 01:11:00,0.0,1.90909,0.00049,399.611,0.074,0.1530,0.0011,140.000,45.000,31724.39101,1.91202,400.366,33.375,45.058,45.000,0.00,0.11,-272.57,-272.63,-19,574,-3,20.6,4.8,-20.7,20.7,5.0,-20.3,5.73,2.61,-11.5,27.0
2013-11-15 01:12:00,0.0,1.90897,0.00059,399.596,0.092,0.1525,0.0012,139.998,45.000,31723.87206,1.91185,400.335,33.375,45.058,45.000,0.00,0.11,-272.57,-272.64,-19,574,-3,20.6,4.8,-20.7,20.7,5.0,-20.3,5.73,2.58,-11.5,27.0
2013-11-15 01:13:00,0.0,1.90848,0.00030,399.434,0.082,0.1537,0.0022,140.000,45.000,31724.44514,1.91140,400.171,33.379,45.058,45.000,0.00,0.11,-272.57,-272.63,-18,574,-3,20.6,4.8,-20.7,20.7,5.0,-20.3,5.73,2.54,-11.5,27.0
2013-11-15 01:14:00,0.0,1.90828,0.00041,399.368,0.156,0.1547,0.0016,139.995,45.000,31721.54659,1.91126,400.143,33.378,45.058,45.000,0.00,0.11,-272.57,-272.63,-18,574,-3,20.6,4.9,-20.7,20.7,5.0,-20.2,5.73,2.53,-11.5,27.0
2013-11-15 01:15:00,0.0,1.90788,0.00043,399.218,0.093,0.1542,0.0016,139.999,45.000,31723.34159,1.91085,399.955,33.378,45.058,45.000,0.00,0.11,-272.57,-272.63,-18,574,-3,20.6,4.9,-20.7,20.7,5.0,-20.2,5.73,2.56,-11.5,27.0
2013-11-15 01:16:00,0.0,1.90777,0.00047,399.121,0.072,0.1555,0.0008,140.005,45.000,31726.39362,1.91077,399.878,33.375,45.058,45.000,0.00,0.11,-272.57,-272.63,-19,574,-3,20.6,4.9,-20.6,20.7,5.1,-20.1,5.73,2.60,-11.5,26.9
2013-11-15 01:17:00,0.0,1.90672,0.00050,398.827,0.122,0.1566,0.0013,140.004,45.000,31725.07512,1.90982,399.600,33.375,45.058,45.000,0.00,0.11,-272.57,-272.63,-19,574,-3,20.6,4.9,-20.5,20.7,5.1,-20.1,5.73,2.62,-11.5,26.9
2013-11-15 01:18:00,0.0,1.90704,0.00040,398.959,0.149,0.1588,0.0021,139.998,45.000,31724.83552,1.90983,399.686,33.375,45.058,45.000,0.00,0.11,-272.57,-272.63,-18,573,-2,20.6,5.0,-20.4,20.7,5.1,-20.0,5.73,2.60,-11.5,26.9
2013-11-15 01:19:00,0.0,1.90713,0.00018,399.019,0.094,0.1599,0.0017,140.007,45.000,31727.24721,1.91016,399.804,33.375,45.058,45.000,0.00,0.11,-272.57,-272.63,-18,574,-3,20.6,5.0,-20.4,20.7,5.2,-19.9,5.73,2.56,-11.5,26.9
2013-11-15 01:20:00,0.0,1.90730,0.00047,398.973,0.040,0.1585,0.0014,139.997,45.000,31721.83211,1.91024,399.730,33.375,45.058,45.000,0.00,0.11,-272.57,-272.64,-19,574,-2,20.6,5.0,-20.4,20.7,5.2,-19.9,5.73,2.53,-11.6,26.9
2013-11-15 01:21:00,0.0,1.90733,0.00036,399.070,0.082,0.1571,0.0018,140.002,45.000,31724.21110,1.91027,399.812,33.379,45.058,45.000,0.00,0.11,-272.56,-272.63,-19,574,-2,20.6,5.0,-20.5,20.7,5.1,-20.0,5.73,2.54,-11.5,26.9
2013-11-15 01:22:00,0.0,1.90702,0.00036,398.975,0.093,0.1601,0.0012,139.993,45.000,31722.91894,1.91012,399.762,33.375,45.058,45.000,0.00,0.11,-272.57,-272.64,-18,573,-3,20.6,5.0,-20.4,20.7,5.2,-19.9,5.73,2.57,-11.5,26.9
2013-11-15 01:23:00,0.0,1.90767,0.00043,398.981,0.064,0.1587,0.0015,140.002,45.000,31723.82029,1.91054,399.739,33.375,45.058,45.000,0.00,0.11,-272.57,-272.64,-18,572,-2,20.5,5.0,-20.4,20.7,5.2,-19.9,5.73,2.61,-11.5,26.9
2013-11-15 01:24:00,0.0,1.90802,0.00044,399.099,0.048,0.1588,0.0011,140.004,45.000,31722.60690,1.91101,399.862,33.375,45.058,45.000,0.00,0.11,-272.57,-272.63,-18,573,-2,20.5,5.0,-20.4,20.7,5.2,-19.9,5.73,2.61,-11.5,26.9
2013-11-15 01:25:00,0.0,1.90773,0.00024,399.085,0.041,0.1580,0.0015,140.001,45.000,31723.51697,1.91071,399.843,33.375,45.058,45.000,0.00,0.11,-272.57,-272.64,-20,578,-5,20.5,5.0,-20.5,20.7,5.1,-20.0,5.73,2.59,-11.6,26.9
2013-11-15 01:26:00,0.0,1.90741,0.00045,399.106,0.037,0.1586,0.0017,140.001,45.000,31724.51601,1.91041,399.870,33.375,45.058,45.000,0.00,0.11,-272.58,-272.64,-16,577,3,20.5,5.0,-20.5,20.7,5.1,-20.0,5.73,2.55,-11.6,26.9
2013-11-15 01:27:00,0.0,1.90782,0.00047,399.165,0.061,0.1576,0.0018,140.003,45.000,31724.76497,1.91072,399.921,33.377,45.058,45.000,0.00,0.11,-272.57,-272.63,-21,572,-2,20.5,5.0,-20.5,20.7,5.1,-20.0,5.73,2.54,-11.5,26.9
2013-11-15 01:28:00,0.0,1.90880,0.00055,399.276,0.045,0.1569,0.0019,140.001,45.000,31723.16981,1.91176,400.028,33.375,45.058,45.000,0.00,0.11,-272.57,-272.64,-15,573,-5,20.5,4.9,-20.6,20.7,5.1,-20.1,5.73,2.56,-11.5,26.9
2013-11-15 01:29:00,0.0,1.90767,0.00043,398.986,0.165,0.1546,0.0028,140.007,45.000,31723.72861,1.91067,399.761,33.375,45.058,45.000,0.00,0.11,-272.57,-272.63,-19,574,-3,20.5,4.9,-20.6,20.6,5.1,-20.1,5.73,2.59,-11.6,26.9
2013-11-15 01:30:00,0.0,1.90717,0.00050,398.866,0.041,0.1570,0.0021,139.996,45.000,31722.41427,1.91017,399.613,33.375,45.058,45.000,0.00,0.11,-272.57,-272.63,-19,574,-3,20.5,4.9,-20.6,20.6,5.1,-20.1,5.73,2.61,-11.6,26.9
2013-11-15 01:31:00,0.0,1.90683,0.00036,398.789,0.015,0.1604,0.0014,139.998,45.000,31723.62689,1.90985,399.563,33.382,45.058,45.000,0.00,0.11,-272.57,-272.63,-19,574,-2,20.5,5.0,-20.4,20.6,5.2,-20.0,5.73,2.61,-11.6,26.9
2013-11-15 01:32:00,0.0,1.90693,0.00023,398.776,0.030,0.1597,0.0017,140.000,45.000,31720.55209,1.90993,399.547,33.381,45.058,45.000,0.00,0.11,-272.57,-272.64,-19,574,-3,20.5,5.0,-20.4,20.6,5.2,-19.9,5.73,2.57,-11.5,26.9
2013-11-15 01:33:00,0.0,1.90758,0.00040,398.926,0.155,0.1604,0.0027,140.003,45.000,31721.54624,1.91045,399.681,33.385,45.058,45.000,0.00,0.11,-272.57,-272.63,-18,574,-3,20.5,5.0,-20.3,20.6,5.2,-19.8,5.73,2.54,-11.6,26.9
2013-11-15 01:34:00,0.0,1.90788,0.00041,399.006,0.034,0.1574,0.0024,139.995,45.000,31718.97947,1.91080,399.764,33.375,45.058,45.000,0.00,0.11,-272.57,-272.63,-18,574,-2,20.5,5.0,-20.5,20.6,5.1,-20.0,5.73,2.54,-11.6,26.8
2013-11-15 01:35:00,0.0,1.90820,0.00039,399.070,0.023,0.1504,0.0031,139.999,45.000,31723.05688,1.91109,399.792,33.386,45.058,45.000,0.00,0.11,-272.57,-272.64,-19,574,-3,20.5,4.8,-20.8,20.6,5.0,-20.3,5.73,2.56,-11.6,26.8
2013-11-15 01:36:00,0.0,1.90836,0.00039,399.117,0.018,0.1481,0.0015,139.996,45.000,31720.86969,1.91101,399.827,33.401,45.058,45.000,0.00,0.11,-272.57,-272.63,-18,573,-3,20.5,4.7,-21.1,20.6,4.9,-20.6,5.73,2.60,-11.6,26.8
2013-11-15 01:37:00,0.0,1.90878,0.00061,399.263,0.177,0.1480,0.0019,140.000,45.000,31720.44265,1.91147,399.948,33.387,45.058,45.000,0.00,0.11,-272.57,-272.63,-18,573,-3,20.4,4.7,-21.2,20.6,4.9,-20.6,5.73,2.62,-11.6,26.8
2013-11-15 01:38:00,0.0,1.90997,0.00035,399.752,0.022,0.1478,0.0016,139.997,45.000,31719.27205,1.91275,400.455,33.411,45.058,45.000,0.00,0.11,-272.57,-272.63,-18,573,-3,20.4,4.7,-21.2,20.6,4.8,-20.7,5.73,2.60,-11.6,26.8
2013-11-15 01:39:00,0.0,1.90901,0.00048,399.622,0.040,0.1480,0.0008,140.000,45.000,31723.28107,1.91194,400.342,33.422,45.058,45.000,0.00,0.11,-272.57,-272.64,-18,574,-2,20.4,4.7,-21.1,20.6,4.9,-20.6,5.73,2.56,-11.5,26.9
2013-11-15 01:40:00,0.0,1.90869,0.00022,399.412,0.071,0.1509,0.0010,139.998,45.000,31720.05467,1.91159,400.164,33.418,45.058,45.000,0.00,0.11,-272.57,-272.64,-18,574,-3,20.4,4.8,-21.0,20.6,5.0,-20.4,5.73,2.54,-11.6,26.8
2013-11-15 01:41:00,0.0,1.90805,0.00082,399.107,0.036,0.1527,0.0017,140.001,45.000,31720.86414,1.91089,399.850,33.405,45.058,45.000,0.00,0.11,-272.57,-272.63,-18,573,-3,20.4,4.8,-20.8,20.6,5.0,-20.3,5.73,2.54,-11.5,26.8
2013-11-15 01:42:00,0.0,1.90824,0.00045,399.208,0.079,0.1527,0.0008,139.999,45.000,31719.44656,1.91124,399.949,33.382,45.058,45.000,0.00,0.11,-272.57,-272.63,-18,573,-2,20.4,4.9,-20.8,20.6,5.0,-20.3,5.73,2.57,-11.6,26.9
2013-11-15 01:43:00,0.0,1.90786,0.00024,399.082,0.034,0.1536,0.0016,139.993,45.000,31717.05865,1.91069,399.822,33.402,45.059,45.000,0.00,0.11,-272.57,-272.63,-18,573,-2,20.4,4.9,-20.8,20.6,5.0,-20.3,5.73,2.61,-11.6,26.9
2013-11-15 01:44:00,0.0,1.90870,0.00046,399.232,0.104,0.1555,0.0020,139.999,45.000,31718.74202,1.91146,399.960,33.406,45.059,45.000,0.00,0.11,-272.57,-272.63,-18,574,-3,20.4,4.9,-20.7,20.6,5.1,-20.1,5.73,2.62,-11.6,26.9
2013-11-15 01:45:00,0.0,1.90883,0.00048,399.381,0.022,0.1551,0.0009,139.996,45.000,31719.11752,1.91184,400.130,33.385,45.059,45.000,0.00,0.11,-272.57,-272.63,-19,573,-3,20.4,4.9,-20.6,20.6,5.1,-20.1,5.73,2.59,-11.6,26.9